This is the latest recevied weather packets stored in our database for station/object W4MSI. If no packets are shown the sender has not sent any weather packets the latest 1 day(s).
| Time | Temp. | Humidity | Pressure | Rain* | Wind** | Luminosity | Snow |
|---|---|---|---|---|---|---|---|
| 1777987201 | 16.67° C | 72% | 1010.3 hPa | 0 mm | 1.79 m/s, 204° | 124 W/m² | - |
| 1777986897 | 16.67° C | 72% | 1010.2 hPa | 0 mm | 1.79 m/s, 225° | 113 W/m² | - |
| 1777986595 | 16.67° C | 72% | 1010.3 hPa | 0 mm | 1.79 m/s, 247° | 110 W/m² | - |
| 1777986293 | 16.67° C | 73% | 1010.1 hPa | 0 mm | 1.79 m/s, 183° | 112 W/m² | - |
| 1777985990 | 16.11° C | 74% | 1010.1 hPa | 0 mm | 0.45 m/s, 237° | 115 W/m² | - |
| 1777985687 | 16.11° C | 73% | 1009.9 hPa | 0 mm | 0.89 m/s, 147° | 107 W/m² | - |
| 1777985384 | 16.11° C | 73% | 1010 hPa | 0 mm | 0.89 m/s, 83° | 107 W/m² | - |
| 1777985080 | 16.11° C | 74% | 1010.2 hPa | 0 mm | 0.45 m/s, 213° | 104 W/m² | - |
| 1777984777 | 16.11° C | 74% | 1009.9 hPa | 0 mm | 0 m/s | 103 W/m² | - |
| 1777984473 | 15.56° C | 74% | 1009.9 hPa | 0 mm | 0.89 m/s, 147° | 80 W/m² | - |
| 1777984169 | 15.56° C | 74% | 1010 hPa | 0 mm | 0.45 m/s, 150° | 78 W/m² | - |
| 1777983867 | 15.56° C | 75% | 1009.9 hPa | 0 mm | 0.89 m/s, 168° | 74 W/m² | - |
| 1777983563 | 15.56° C | 75% | 1010 hPa | 0 mm | 0 m/s | 63 W/m² | - |
| 1777983261 | 15° C | 76% | 1010.1 hPa | 0 mm | 0 m/s | 56 W/m² | - |
| 1777982956 | 15° C | 76% | 1010 hPa | 0 mm | 0 m/s | 55 W/m² | - |
| 1777982653 | 15° C | 76% | 1010 hPa | 0 mm | 0 m/s | 55 W/m² | - |
| 1777982352 | 15° C | 76% | 1010.1 hPa | 0 mm | 0.45 m/s, 221° | 48 W/m² | - |
| 1777982049 | 15° C | 76% | 1010 hPa | 0 mm | 0.45 m/s, 32° | 44 W/m² | - |
| 1777981747 | 15° C | 77% | 1009.9 hPa | 0 mm | 0 m/s | 37 W/m² | - |
| 1777981443 | 14.44° C | 76% | 1009.7 hPa | 0 mm | 0.89 m/s, 131° | 32 W/m² | - |
| 1777981139 | 14.44° C | 77% | 1009.7 hPa | 0 mm | 0 m/s | 29 W/m² | - |
| 1777980836 | 14.44° C | 76% | 1009.4 hPa | 0 mm | 0 m/s | 24 W/m² | - |
| 1777980531 | 14.44° C | 77% | 1009.3 hPa | 0 mm | 0.45 m/s, 252° | 20 W/m² | - |
| 1777980229 | 14.44° C | 76% | 1009.4 hPa | 0 mm | 0 m/s | 19 W/m² | - |
| 1777979925 | 14.44° C | 76% | 1009.5 hPa | 0 mm | 0 m/s | 15 W/m² | - |
* Rain latest hour (hover to see other rain measurements)
** Current wind speed in m/s (hover to see current wind gust speed)